Time,TemperatureF,DewpointF,PressureIn,WindDirection,WindDirectionDegrees,WindSpeedMPH,WindSpeedGustMPH,Humidity,HourlyPrecipIn,Conditions,Clouds,dailyrainin,SoftwareType,DateUTC
2013-07-24 00:02:00,72.0,-99.9,29.92,WNW,301,2.0,6.0,-999,-99.99,,,-99.99,,2013-07-24 07:02:00,
2013-07-24 00:12:00,72.0,-99.9,29.92,WNW,301,2.0,6.0,-999,-99.99,,,-99.99,,2013-07-24 07:12:00,
2013-07-24 00:22:00,71.0,-99.9,29.91,WNW,302,2.0,7.0,-999,-99.99,,,-99.99,,2013-07-24 07:22:00,
2013-07-24 00:30:00,71.0,-99.9,29.92,WNW,301,3.0,7.0,-999,-99.99,,,-99.99,,2013-07-24 07:30:00,
2013-07-24 00:32:00,71.0,-99.9,29.93,WNW,284,3.0,7.0,-999,-99.99,,,-99.99,,2013-07-24 07:32:00,
2013-07-24 00:43:00,71.0,-99.9,29.93,WNW,296,3.0,6.0,-999,-99.99,,,-99.99,,2013-07-24 07:43:00,
2013-07-24 00:53:00,71.0,-99.9,29.92,WNW,301,3.0,7.0,-999,-99.99,,,-99.99,,2013-07-24 07:53:00,
2013-07-24 01:02:00,71.0,-99.9,29.92,WNW,301,3.0,7.0,-999,-99.99,,,-99.99,,2013-07-24 08:02:00,
2013-07-24 01:12:00,71.0,-99.9,29.92,WNW,301,3.0,7.0,-999,-99.99,,,-99.99,,2013-07-24 08:12:00,
2013-07-24 01:22:00,71.0,-99.9,29.92,WNW,301,3.0,7.0,-999,-99.99,,,-99.99,,2013-07-24 08:22:00,
2013-07-24 04:02:00,71.0,-99.9,29.93,NW,312,2.0,6.0,-999,-99.99,,,-99.99,,2013-07-24 11:02:00,
2013-07-24 04:12:00,68.0,-99.9,29.90,WNW,299,2.0,5.0,-999,-99.99,,,-99.99,,2013-07-24 11:12:00,
2013-07-24 04:22:00,68.0,-99.9,29.90,WNW,299,2.0,5.0,-999,-99.99,,,-99.99,,2013-07-24 11:22:00,
2013-07-24 04:32:00,68.0,-99.9,29.91,WSW,255,2.0,6.0,-999,-99.99,,,-99.99,,2013-07-24 11:32:00,
2013-07-24 04:44:00,68.0,-99.9,29.91,WNW,289,3.0,6.0,-999,-99.99,,,-99.99,,2013-07-24 11:44:00,
2013-07-24 04:52:00,68.0,-99.9,29.91,WNW,289,3.0,6.0,-999,-99.99,,,-99.99,,2013-07-24 11:52:00,
2013-07-24 05:02:00,68.0,-99.9,29.91,WNW,288,2.0,4.0,-999,-99.99,,,-99.99,,2013-07-24 12:02:00,
2013-07-24 05:12:00,68.0,-99.9,29.91,West,279,3.0,5.0,-999,-99.99,,,-99.99,,2013-07-24 12:12:00,
2013-07-24 05:32:00,68.0,-99.9,29.91,West,275,1.0,3.0,-999,-99.99,,,-99.99,,2013-07-24 12:32:00,
2013-07-24 05:42:00,67.0,-99.9,29.90,NW,321,2.0,6.0,-999,-99.99,,,-99.99,,2013-07-24 12:42:00,
2013-07-24 05:52:00,67.0,-99.9,29.90,NW,321,2.0,6.0,-999,-99.99,,,-99.99,,2013-07-24 12:52:00,
2013-07-24 06:12:00,67.0,-99.9,29.92,WNW,300,2.0,5.0,-999,-99.99,,,-99.99,,2013-07-24 13:12:00,
2013-07-24 06:22:00,67.0,-99.9,29.92,WNW,300,2.0,5.0,-999,-99.99,,,-99.99,,2013-07-24 13:22:00,
2013-07-24 06:32:00,67.0,-99.9,29.90,West,271,3.0,5.0,-999,-99.99,,,-99.99,,2013-07-24 13:32:00,
2013-07-24 06:43:00,67.0,-99.9,29.90,West,271,3.0,5.0,-999,-99.99,,,-99.99,,2013-07-24 13:43:00,
2013-07-24 06:53:00,67.0,-99.9,29.90,West,271,3.0,5.0,-999,-99.99,,,-99.99,,2013-07-24 13:53:00,
2013-07-24 07:40:00,68.0,-99.9,29.93,WSW,253,1.0,4.0,-999,-99.99,,,-99.99,,2013-07-24 14:40:00,
2013-07-24 07:43:00,67.0,-99.9,29.89,WNW,298,2.0,5.0,-999,-99.99,,,-99.99,,2013-07-24 14:43:00,
2013-07-24 07:55:00,68.0,-99.9,29.92,WNW,303,2.0,5.0,-999,-99.99,,,-99.99,,2013-07-24 14:55:00,
2013-07-24 08:12:00,68.0,-99.9,29.93,WSW,253,1.0,4.0,-999,-99.99,,,-99.99,,2013-07-24 15:12:00,
2013-07-24 08:22:00,68.0,-99.9,29.93,WSW,253,1.0,4.0,-999,-99.99,,,-99.99,,2013-07-24 15:22:00,
2013-07-24 08:33:00,68.0,-99.9,29.93,WSW,253,1.0,4.0,-999,-99.99,,,-99.99,,2013-07-24 15:33:00,
2013-07-24 08:53:00,69.0,-99.9,29.92,NW,304,3.0,5.0,-999,-99.99,,,-99.99,,2013-07-24 15:53:00,
2013-07-24 09:02:00,70.0,-99.9,29.92,WNW,296,2.0,5.0,-999,-99.99,,,-99.99,,2013-07-24 16:02:00,
2013-07-24 09:12:00,70.0,-99.9,29.92,WNW,296,2.0,5.0,-999,-99.99,,,-99.99,,2013-07-24 16:12:00,
2013-07-24 09:23:00,70.0,-99.9,29.91,SW,226,5.0,10.0,-999,-99.99,,,-99.99,,2013-07-24 16:23:00,
2013-07-24 09:33:00,70.0,-99.9,29.91,SW,226,5.0,10.0,-999,-99.99,,,-99.99,,2013-07-24 16:33:00,
2013-07-24 09:43:00,71.0,-99.9,29.91,SW,222,4.0,8.0,-999,-99.99,,,-99.99,,2013-07-24 16:43:00,
2013-07-24 09:53:00,71.0,-99.9,29.91,SW,222,4.0,8.0,-999,-99.99,,,-99.99,,2013-07-24 16:53:00,
2013-07-24 10:03:00,71.0,-99.9,29.91,WSW,245,4.0,10.0,-999,-99.99,,,-99.99,,2013-07-24 17:03:00,
2013-07-24 10:12:00,71.0,-99.9,29.91,WSW,245,4.0,10.0,-999,-99.99,,,-99.99,,2013-07-24 17:12:00,
2013-07-24 10:22:00,71.0,-99.9,29.91,WSW,245,4.0,10.0,-999,-99.99,,,-99.99,,2013-07-24 17:22:00,
2013-07-24 10:33:00,72.0,-99.9,29.91,SW,215,3.0,6.0,-999,-99.99,,,-99.99,,2013-07-24 17:33:00,
2013-07-24 10:43:00,73.0,-99.9,29.91,West,264,2.0,7.0,-999,-99.99,,,-99.99,,2013-07-24 17:43:00,
2013-07-24 10:53:00,73.0,-99.9,29.90,South,180,1.0,9.0,-999,-99.99,,,-99.99,,2013-07-24 17:53:00,
2013-07-24 11:03:00,74.0,-99.9,29.92,WSW,253,4.0,8.0,-999,-99.99,,,-99.99,,2013-07-24 18:03:00,
2013-07-24 11:12:00,75.0,-99.9,29.92,WSW,255,4.0,7.0,-999,-99.99,,,-99.99,,2013-07-24 18:12:00,
2013-07-24 11:22:00,75.0,-99.9,29.90,SW,230,3.0,10.0,-999,-99.99,,,-99.99,,2013-07-24 18:22:00,
2013-07-24 11:33:00,75.0,-99.9,29.91,SW,220,6.0,10.0,-999,-99.99,,,-99.99,,2013-07-24 18:33:00,
2013-07-24 11:43:00,75.0,-99.9,29.90,SW,223,5.0,10.0,-999,-99.99,,,-99.99,,2013-07-24 18:43:00,
2013-07-24 11:52:00,76.0,-99.9,29.91,WSW,254,7.0,11.0,-999,-99.99,,,-99.99,,2013-07-24 18:52:00,
2013-07-24 12:03:00,76.0,-99.9,29.90,SSW,200,3.0,9.0,-999,-99.99,,,-99.99,,2013-07-24 19:03:00,
2013-07-24 12:12:00,77.0,-99.9,29.91,WSW,248,4.0,8.0,-999,-99.99,,,-99.99,,2013-07-24 19:12:00,
2013-07-24 12:33:00,77.0,-99.9,29.89,SW,228,4.0,8.0,-999,-99.99,,,-99.99,,2013-07-24 19:33:00,
2013-07-24 12:43:00,79.0,-99.9,29.89,SSW,203,4.0,8.0,-999,-99.99,,,-99.99,,2013-07-24 19:43:00,
2013-07-24 12:53:00,79.0,-99.9,29.89,SSW,203,4.0,8.0,-999,-99.99,,,-99.99,,2013-07-24 19:53:00,
2013-07-24 13:02:00,79.0,-99.9,29.89,SSW,203,4.0,8.0,-999,-99.99,,,-99.99,,2013-07-24 20:02:00,
2013-07-24 13:13:00,79.0,-99.9,29.90,SW,217,6.0,11.0,-999,-99.99,,,-99.99,,2013-07-24 20:13:00,
2013-07-24 13:23:00,80.0,-99.9,29.88,SSW,194,5.0,13.0,-999,-99.99,,,-99.99,,2013-07-24 20:23:00,
2013-07-24 13:33:00,80.0,-99.9,29.88,West,261,4.0,12.0,-999,-99.99,,,-99.99,,2013-07-24 20:33:00,
2013-07-24 13:43:00,81.0,-99.9,29.89,SSW,202,5.0,10.0,-999,-99.99,,,-99.99,,2013-07-24 20:43:00,
2013-07-24 13:53:00,81.0,-99.9,29.88,West,275,6.0,12.0,-999,-99.99,,,-99.99,,2013-07-24 20:53:00,
2013-07-24 14:03:00,82.0,-99.9,29.87,WSW,243,7.0,14.0,-999,-99.99,,,-99.99,,2013-07-24 21:03:00,
2013-07-24 14:12:00,82.0,-99.9,29.87,WSW,243,7.0,14.0,-999,-99.99,,,-99.99,,2013-07-24 21:12:00,
2013-07-24 14:22:00,82.0,-99.9,29.86,WNW,287,7.0,10.0,-999,-99.99,,,-99.99,,2013-07-24 21:22:00,
2013-07-24 14:32:00,82.0,-99.9,29.86,WNW,287,7.0,10.0,-999,-99.99,,,-99.99,,2013-07-24 21:32:00,
2013-07-24 14:44:00,83.0,-99.9,29.89,West,275,8.0,17.0,-999,-99.99,,,-99.99,,2013-07-24 21:44:00,
2013-07-24 14:53:00,83.0,-99.9,29.89,West,270,5.0,13.0,-999,-99.99,,,-99.99,,2013-07-24 21:53:00,
2013-07-24 15:02:00,83.0,-99.9,29.88,West,275,7.0,13.0,-999,-99.99,,,-99.99,,2013-07-24 22:02:00,
2013-07-24 15:12:00,83.0,-99.9,29.88,West,275,7.0,13.0,-999,-99.99,,,-99.99,,2013-07-24 22:12:00,
2013-07-24 15:22:00,83.0,-99.9,29.88,West,275,7.0,13.0,-999,-99.99,,,-99.99,,2013-07-24 22:22:00,
2013-07-24 15:43:00,83.0,-99.9,29.87,NW,309,5.0,10.0,-999,-99.99,,,-99.99,,2013-07-24 22:43:00,
2013-07-24 15:53:00,83.0,-99.9,29.87,West,269,8.0,15.0,-999,-99.99,,,-99.99,,2013-07-24 22:53:00,
2013-07-24 16:02:00,83.0,-99.9,29.87,West,269,8.0,15.0,-999,-99.99,,,-99.99,,2013-07-24 23:02:00,
2013-07-24 16:12:00,83.0,-99.9,29.85,WSW,256,6.0,12.0,-999,-99.99,,,-99.99,,2013-07-24 23:12:00,
2013-07-24 16:22:00,83.0,-99.9,29.84,WSW,257,9.0,13.0,-999,-99.99,,,-99.99,,2013-07-24 23:22:00,
2013-07-24 16:33:00,83.0,-99.9,29.83,West,259,6.0,12.0,-999,-99.99,,,-99.99,,2013-07-24 23:33:00,
2013-07-24 16:43:00,83.0,-99.9,29.83,West,259,6.0,12.0,-999,-99.99,,,-99.99,,2013-07-24 23:43:00,
2013-07-24 16:52:00,83.0,-99.9,29.83,West,259,6.0,12.0,-999,-99.99,,,-99.99,,2013-07-24 23:52:00,
2013-07-24 17:22:00,83.0,-99.9,29.83,WNW,289,6.0,10.0,-999,-99.99,,,-99.99,,2013-07-25 00:22:00,
2013-07-24 17:33:00,82.0,-99.9,29.84,WSW,256,7.0,10.0,-999,-99.99,,,-99.99,,2013-07-25 00:33:00,
2013-07-24 17:43:00,82.0,-99.9,29.85,West,262,7.0,13.0,-999,-99.99,,,-99.99,,2013-07-25 00:43:00,
2013-07-24 17:53:00,82.0,-99.9,29.83,WNW,287,5.0,10.0,-999,-99.99,,,-99.99,,2013-07-25 00:53:00,
2013-07-24 18:12:00,81.0,-99.9,29.84,NW,321,3.0,10.0,-999,-99.99,,,-99.99,,2013-07-25 01:12:00,
2013-07-24 18:22:00,81.0,-99.9,29.84,NW,321,3.0,10.0,-999,-99.99,,,-99.99,,2013-07-25 01:22:00,
2013-07-24 18:32:00,81.0,-99.9,29.83,West,274,8.0,11.0,-999,-99.99,,,-99.99,,2013-07-25 01:32:00,
2013-07-24 18:43:00,80.0,-99.9,29.83,West,277,5.0,12.0,-999,-99.99,,,-99.99,,2013-07-25 01:43:00,
2013-07-24 18:53:00,80.0,-99.9,29.83,WNW,292,5.0,11.0,-999,-99.99,,,-99.99,,2013-07-25 01:53:00,
2013-07-24 19:02:00,80.0,-99.9,29.83,WNW,292,5.0,11.0,-999,-99.99,,,-99.99,,2013-07-25 02:02:00,
2013-07-24 19:12:00,79.0,-99.9,29.83,West,269,5.0,11.0,-999,-99.99,,,-99.99,,2013-07-25 02:12:00,
2013-07-24 19:22:00,79.0,-99.9,29.83,West,269,5.0,11.0,-999,-99.99,,,-99.99,,2013-07-25 02:22:00,
2013-07-24 19:33:00,78.0,-99.9,29.82,WNW,290,5.0,10.0,-999,-99.99,,,-99.99,,2013-07-25 02:33:00,
2013-07-24 19:43:00,78.0,-99.9,29.82,WNW,290,5.0,10.0,-999,-99.99,,,-99.99,,2013-07-25 02:43:00,
2013-07-24 19:53:00,78.0,-99.9,29.82,WNW,290,5.0,10.0,-999,-99.99,,,-99.99,,2013-07-25 02:53:00,
2013-07-24 20:02:00,78.0,-99.9,29.82,WNW,290,5.0,10.0,-999,-99.99,,,-99.99,,2013-07-25 03:02:00,
2013-07-24 20:24:00,76.0,-99.9,29.83,WNW,299,4.0,8.0,-999,-99.99,,,-99.99,,2013-07-25 03:24:00,
2013-07-24 20:41:00,76.0,-99.9,29.83,WNW,299,4.0,8.0,-999,-99.99,,,-99.99,,2013-07-25 03:41:00,
2013-07-24 20:53:00,74.0,-99.9,29.87,WNW,291,4.0,9.0,-999,-99.99,,,-99.99,,2013-07-25 03:53:00,
2013-07-24 21:02:00,74.0,-99.9,29.87,WNW,291,4.0,9.0,-999,-99.99,,,-99.99,,2013-07-25 04:02:00,
2013-07-24 21:12:00,74.0,-99.9,29.87,WNW,293,3.0,7.0,-999,-99.99,,,-99.99,,2013-07-25 04:12:00,
2013-07-24 21:43:00,73.0,-99.9,29.88,West,274,4.0,8.0,-999,-99.99,,,-99.99,,2013-07-25 04:43:00,
2013-07-24 21:53:00,73.0,-99.9,29.86,WNW,300,3.0,8.0,-999,-99.99,,,-99.99,,2013-07-25 04:53:00,
2013-07-24 22:02:00,73.0,-99.9,29.86,WNW,300,3.0,8.0,-999,-99.99,,,-99.99,,2013-07-25 05:02:00,
2013-07-24 22:22:00,72.0,-99.9,29.86,WNW,289,3.0,7.0,-999,-99.99,,,-99.99,,2013-07-25 05:22:00,
2013-07-24 22:32:00,72.0,-99.9,29.86,WNW,289,3.0,7.0,-999,-99.99,,,-99.99,,2013-07-25 05:32:00,
2013-07-24 22:43:00,72.0,-99.9,29.89,West,279,3.0,6.0,-999,-99.99,,,-99.99,,2013-07-25 05:43:00,
2013-07-24 22:52:00,72.0,-99.9,29.89,West,279,3.0,6.0,-999,-99.99,,,-99.99,,2013-07-25 05:52:00,
2013-07-24 23:02:00,71.0,-99.9,29.88,West,275,4.0,7.0,-999,-99.99,,,-99.99,,2013-07-25 06:02:00,
2013-07-24 23:10:00,71.0,-99.9,29.89,WNW,287,3.0,7.0,-999,-99.99,,,-99.99,,2013-07-25 06:10:00,
2013-07-24 23:12:00,71.0,-99.9,29.88,WNW,289,3.0,6.0,-999,-99.99,,,-99.99,,2013-07-25 06:12:00,
2013-07-24 23:22:00,71.0,-99.9,29.89,West,273,3.0,7.0,-999,-99.99,,,-99.99,,2013-07-25 06:22:00,
2013-07-24 23:32:00,71.0,-99.9,29.89,WNW,287,3.0,7.0,-999,-99.99,,,-99.99,,2013-07-25 06:32:00,
2013-07-24 23:42:00,71.0,-99.9,29.89,WNW,287,3.0,7.0,-999,-99.99,,,-99.99,,2013-07-25 06:42:00,
2013-07-24 23:52:00,71.0,-99.9,29.89,WNW,287,3.0,7.0,-999,-99.99,,,-99.99,,2013-07-25 06:52:00,